Change the Weather History Date:

Wednesday, October 10, 2012

  Actual Average (PASK) Record (PASK)
Temperature  
Mean Temperature 24 °F -  
Max Temperature 21 °F 28 °F 48 °F (2006)
Min Temperature 15 °F 20 °F 12 °F (2000)
Degree Days  
Heating Degree Days 40    
Moisture  
Dew Point 17 °F    
Average Humidity 76    
Maximum Humidity 92    
Minimum Humidity 52    
Precipitation  
Precipitation 0.00 in - - ()
Sea Level Pressure  
Sea Level Pressure 30.67 in    
Wind  
Wind Speed 3 mph (NNE)    
Max Wind Speed 9 mph    
Max Gust Speed -    
Visibility 10 miles    
Events      
Averages and records for this station are not official NWS values.
T = Trace of Precipitation, MM = Missing Value Source: NWS Daily Summary

Daily Weather History Graph

Daily Weather History Graph

Search for Another Location

Airport or City:

Trip Planner

Search our weather history database for the weather conditions in past years. The results will help you decide how hot, cold, wet, or windy it might be!

Date:

Astronomy

Oct. 10, 2012 Rise Set
Actual Time 9:26 AM AKDT 7:28 PM AKDT
Civil Twilight 8:32 AM AKDT 8:22 PM AKDT
Nautical Twilight 7:31 AM AKDT 9:23 PM AKDT
Astronomical Twilight 6:26 AM AKDT 10:28 PM AKDT
Moon 2:09 AM AKDT (10/10) 6:22 PM AKDT (10/10)
Length of Visible Light 11h 49m
Length of Day
10h 02m
Waning Crescent, 26% of the Moon is Illuminated
Oct 10
Waning Crescent
Oct 15
New
Oct 21
First Quarter
Oct 29
Full
Nov 6
Last Quarter

Hourly Weather History & Observations

Time (AKDT) Temp. Windchill Dew Point Humidity Pressure Visibility Wind Dir Wind Speed Gust Speed Precip Events Conditions
12:01 AM 24.1 °F 19.7 °F 18.0 °F 77% 30.72 in 10.0 mi NNW 3.5 mph - N/A   Clear
1:01 AM 24.1 °F 14.4 °F 19.0 °F 81% 30.71 in 10.0 mi North 9.2 mph - N/A   Clear
2:01 AM 21.0 °F - 18.0 °F 88% 30.72 in 10.0 mi Calm Calm - N/A   Clear
3:01 AM 19.0 °F - 16.0 °F 88% 30.72 in 10.0 mi Calm Calm - N/A   Clear
4:01 AM 19.0 °F 13.9 °F 17.1 °F 92% 30.72 in 10.0 mi North 3.5 mph - N/A   Clear
5:01 AM 18.0 °F 12.7 °F 16.0 °F 92% 30.71 in 10.0 mi NNW 3.5 mph - N/A   Clear
6:01 AM 19.9 °F 14.9 °F 17.1 °F 89% 30.71 in 10.0 mi ENE 3.5 mph - N/A   Clear
7:01 AM 17.1 °F 8.7 °F 14.0 °F 88% 30.70 in 10.0 mi North 5.8 mph - N/A   Clear
8:01 AM 18.0 °F - 16.0 °F 92% 30.70 in 10.0 mi Calm Calm - N/A   Clear
9:01 AM 15.1 °F 9.4 °F 12.9 °F 91% 30.70 in 10.0 mi NNW 3.5 mph - N/A   Clear
10:01 AM 17.1 °F 10.0 °F 15.1 °F 92% 30.70 in 10.0 mi NNE 4.6 mph - N/A   Clear
11:01 AM 21.0 °F 16.2 °F 16.0 °F 81% 30.69 in 10.0 mi North 3.5 mph - N/A   Clear
12:01 PM 24.1 °F 17.0 °F 19.0 °F 81% 30.69 in 10.0 mi ENE 5.8 mph - N/A   Clear
1:01 PM 27.0 °F 21.6 °F 19.0 °F 72% 30.68 in 10.0 mi NNE 4.6 mph - N/A   Clear
2:01 PM 30.0 °F 25.2 °F 19.0 °F 64% 30.67 in 10.0 mi Variable 4.6 mph - N/A   Clear
3:01 PM 34.0 °F - 19.9 °F 56% 30.66 in 10.0 mi Calm Calm - N/A   Clear
4:01 PM 33.1 °F - 18.0 °F 54% 30.65 in 10.0 mi Calm Calm - N/A   Clear
5:01 PM 33.1 °F 30.0 °F 17.1 °F 52% 30.63 in 10.0 mi NE 3.5 mph - N/A   Clear
6:01 PM 32.0 °F 28.7 °F 18.0 °F 56% 30.62 in 10.0 mi ENE 3.5 mph - N/A   Clear
7:01 PM 30.9 °F - 19.0 °F 61% 30.61 in 10.0 mi Calm Calm - N/A   Clear
8:01 PM 28.9 °F 25.2 °F 18.0 °F 64% 30.59 in 10.0 mi North 3.5 mph - N/A   Clear
9:01 PM 27.0 °F - 18.0 °F 69% 30.58 in 10.0 mi Calm Calm - N/A   Clear
10:01 PM 25.0 °F - 19.0 °F 78% 30.56 in 10.0 mi Calm Calm - N/A   Clear
11:01 PM 25.0 °F - 17.1 °F 72% 30.54 in 10.0 mi Calm Calm - N/A   Clear